Location: *
(44.1392°N, 4.8079°E)
Time: 22:31:20
(UTC+00:00)

Aureole 3 Rocket - Pass Details

Date: 21 June 2021
Orbit: 399 x 1739 km, 82.5° (Epoch: 01 August)

Event Time Altitude Azimuth Distance (km) Brightness Sun altitude
Rises 01:26:42 0° 348° (NNW) 2,670 7.2 -18.3°
Reaches altitude 10° 01:28:34 10° 346° (NNW) 1,894 6.3 -18.2°
Maximum altitude 01:32:40 71° 263° (W) 749 3.3 -17.9°
Enters shadow 01:35:27 28° 186° (S) 1,466 4.4 -17.6°
